Flag for U.S.A. Weather past 2 weeks in Lakewood, Colorado, U.S.A.

Now
42 °F

Overcast.


Feels Like: 40 °F
Forecast: 36 / 59 °F
Wind: 3 mph from Northwest

Location: Centennial Airport

Current Time: Apr 28, 2015 at 12:57:49 AM

Latest Report: Apr 27, 2015 at 11:53 PM


Visibility: 10 mi

Pressure: 30.37 "Hg

Humidity: 85%

Dew point: 38 °F

Location of LakewoodLocation

Historic Weather in Lakewood — Graph

°F

Lakewood temperature yesterday

Maximum temperature yesterday: 44 °F (at 4:53 PM)
Minimum temperature yesterday: 36 °F (at 7:53 AM)
Average temperature yesterday: 40 °F

Past Weeks' High & Low Weather Summary

 TemperatureHumidityPressure
High73 °F (Apr 14, 1:53 PM)100% (Apr 16, 8:53 AM)30.37 "Hg (Apr 16, 8:53 AM)
Low31 °F (Apr 16, 7:02 AM)9% (Apr 14, 1:53 PM)29.50 "Hg (Apr 15, 3:53 AM)
Average46 °F61%29.91 "Hg
* Reported Apr 12 11:53 PM — Apr 27 11:53 PM, Lakewood, Weather by CustomWeather, © 2015

Note: Actual official high and low records may vary slightly from our data, if they occured in-between our weather recording intervals... More about our weather records

Advertising

Lakewood weather history for previous 24 hours

 ConditionsComfort  
Time TempWeatherWind HumidityBarometerVisibility
11:53 PM
Mon, Apr 27
42 °FOvercast.3 mph85%30.37 "Hg10 mi
10:53 PM42 °FOvercast.No wind85%30.36 "Hg10 mi
9:53 PM42 °FPassing clouds.No wind85%30.36 "Hg10 mi
8:53 PM43 °FOvercast.No wind82%30.34 "Hg10 mi
7:53 PM43 °FMore clouds than sun.5 mph82%30.32 "Hg10 mi
6:53 PM43 °FMostly cloudy.3 mph82%30.30 "Hg10 mi
5:53 PM44 °FMostly cloudy.6 mph79%30.29 "Hg10 mi
4:53 PM44 °FCloudy.6 mph82%30.28 "Hg10 mi
3:53 PM43 °FCloudy.7 mph86%30.29 "Hg10 mi
2:53 PM42 °FCloudy.8 mph85%30.29 "Hg10 mi
1:53 PM42 °FMostly cloudy.7 mph85%30.29 "Hg10 mi
12:53 PM41 °FMostly cloudy.8 mph89%30.29 "Hg10 mi
11:53 AM40 °FMore clouds than sun.8 mph93%30.29 "Hg10 mi
10:53 AM39 °FMostly cloudy.7 mph93%30.29 "Hg8 mi
9:53 AM38 °FLight rain. Mostly cloudy.8 mph97%30.28 "Hg8 mi
8:53 AM37 °FLight rain. Fog.3 mph96%30.26 "Hg6 mi
7:53 AM36 °FLight rain. Fog.7 mph100%30.23 "Hg2 mi
6:53 AM37 °FLight rain. Fog.8 mph100%30.20 "Hg1 mi
5:53 AM38 °FLight rain. Fog.9 mph97%30.16 "Hg3 mi
4:53 AM38 °FLight rain. Fog.8 mph97%30.13 "Hg4 mi
3:53 AM37 °FDrizzle. Fog.7 mph100%30.13 "Hg2 mi
2:53 AM37 °FDrizzle. Fog.8 mph100%30.11 "Hg6 mi
1:53 AM37 °FLight rain. Fog.5 mph96%30.11 "Hg4 mi
12:53 AM38 °FLight rain. Fog.5 mph100%30.11 "Hg3 mi
12:04 AM39 °FLight rain. Fog.7 mph100%30.10 "Hg3 mi
Weather by CustomWeather, © 2015

See weather overviewHow to use our weather pages